CZ-6A DEB, 54545

Orbit data source: Space-Track

CZ-6A DEB, 54545 is space debris in SSO originally from a launch on Fri, 11 Nov 2022 UTC launched from the Taiyaun Space Center, China (TSC). Debris objects in space refer to the collection of defunct objects orbiting the Earth. Examples of debris include non-operational satellites, rocket bodies, and fragments generated from explosions, collisions, or faulty payload assembly.

Loading next visibility...
Identifier
54545, 2022-151KV
Orbit
SSO
Country
Flag of CNCN / PRC
Related business
Manufacturer
SAST
Mission
Spacecraft
Bus & Motor
Unknown
Mass
Unknown
Launch date (UTC)
2022-11-11 (4 years ago)
Launch vehicle
Unknown
Launch site
Taiyaun Space Center, China (TSC)
Object type
Payload
Rocket body
Debris
Shape & HBR
Unknown shape, 0.1 m
Radar Cross Section
Medium (>0.1 m² and <1 m²)

Expand to show TLE details & history
Last TLE update: 12 hours ago

TLE from 12 hours ago
0 CZ-6A DEB
1 54545U 22151KV  26236.43095642  .00000540  00000-0  31085-3 0  9995
2 54545  98.8367 237.8865 0056113  86.5151 274.2437 14.12527100194542
Epoch: 2026-08-24T10:20Z
TLE epoch observation values (Epoch: 2026-08-24T10:20:34.634Z)
Latitude
-0.00003°
Longitude
110.02943°
Altitude
850.862 km
Speed
7.429 km/s
True Right ascension
15h 51m 32s
True Declination
0° 00' 00"
Sunlit
Object was in daylight at epoch
Visualization orbit readout
Latitude
Unknown
Longitude
Unknown
Altitude
Unknown
Speed
Unknown
Apparent Right ascension
Unknown
Apparent Declination
Unknown
Sunlit
N/A
Visualization observer readout
Local Sidereal Time
13:28:29
Azimuth
Unknown
Elevation
Unknown
Doppler factor
Unknown
Orbital elements
Apogee altitude
888.459 km
Perigee altitude
807.364 km
Semi-major axis
7,226.048 km
Eccentricity
0.00561
Inclination
98.8367°
RAAN
237.8865°
Arg. of periapsis
86.5151°
True anomaly
273.60214°
Mean anomaly
274.2437°
Eccentric anomaly
273.92295°
Mean motion
3.53339 °/min
Orbital period
101.89 mins
BSTAR
0.00031085
Loading maneuver chart data...
Computing Atmospheric mass density...
Loading historical data...
Loading historical data...
Loading historical data...
Loading historical data...
Loading historical data...
Loading historical data...
Loading historical data...

Documentation

Showing up to 5 results
|